Regional Weather Roundup
Issued by NWS Lake Charles, LA

Home | Current Version | Previous Version | Text Only | Print | Product List | Glossary On
Versions: 1 2 3 4 5 6 7 8 9 10 11 12 13 14 15 16 17 18 19 20 21 22 23 24 25 26 27 28 29 30 31 32 33 34 35 36 37 38 39 40 41 42 43 44 45 46 47 48 49 50
000
ASUS44 KLCH 020210
RWRLCH
RWRLCH
REGIONAL WEATHER ROUNDUP
NATIONAL WEATHER SERVICE LAKE CHARLES LA
800 PM CST SUN FEB 01 2015

Note: "fair" indicates few or no clouds below 12,000 feet with no
significant weather and/or obstructions to visibility.


ACROSS SOUTHEAST TEXAS

CITY           SKY/WX    TMP DP  RH WIND       PRES   REMARKS
BEAUMONT       LGT RAIN  64  55  72 N17G29    29.97R
BEAUMONT CITY  CLOUDY    62  55  75 N14       30.00R
ORANGE         CLOUDY    63  59  89 N10G16    29.99R
JASPER         MOCLDY    57  46  65 NW16G23   30.06R
$$

ACROSS CENTRAL LOUISIANA

CITY           SKY/WX    TMP DP  RH WIND       PRES   REMARKS
LEESVILLE      CLOUDY    56  48  74 NW21G29   29.99R
FULLERTON      CLOUDY    59  49  69 VRB6      29.96R
ALEXANDRIA INT MOCLDY    56  45  66 NW24G38   29.96R
ESLER FIELD    CLOUDY    58  51  78 NW13G20   29.96R
DERIDDER       CLOUDY    58  51  80 NW14      30.01R
OAKDALE        CLOUDY    60  54  82 NW6       29.96R
OPELOUSAS      LGT RAIN  59  57  93 NW10G17   29.94R
$$

ACROSS SOUTHWEST AND SOUTH CENTRAL LOUISIANA

CITY           SKY/WX    TMP DP  RH WIND       PRES   REMARKS
SULPHUR        CLOUDY    63  59  87 NW15G22   29.98R
LAKE CHARLES   LGT RAIN  62  56  80 N20G29    29.96R
CHENNAULT INT  CLOUDY    63  57  82 NW12      29.97R
CAMERON PHI    CLOUDY    64  63  94 NW12G17   29.98R
DEQUINCY       CLOUDY    60  56  89 NW9       29.99R
JENNINGS       CLOUDY    62  60  93 N14       29.95R
LAFAYETTE      CLOUDY    66  64  93 SW9       29.92R
NEW IBERIA     MOCLDY    66  64  93 W5        29.93R
ABBEVILLE      MOCLDY    64  64  97 SW9       29.92R
PATTERSON      CLOUDY    64  63  94 SW12      29.94R
SALT POINT       N/A     58  57  97 SW5       29.93R
$$

SELECTED SITES ACROSS THE REGION

CITY           SKY/WX    TMP DP  RH WIND       PRES   REMARKS
HOUSTON BUSH   CLOUDY    60  46  59 N23G30    30.04R
HOUSTON HOBBY  CLOUDY    64  49  57 NW21G30   30.01R
GALVESTON      CLOUDY    66  63  90 N21G28    30.00R
COLLEGE STAT   PTCLDY    54  38  54 NW17G25   30.12R
CONROE         CLOUDY    56  42  59 N15G22    30.08R
HUNTSVILLE     PTCLDY    53  39  59 N12G20    30.10R
LUFKIN         PTCLDY    55  36  48 NW13G22   30.08R
SHREVEPORT     PTCLDY    47  33  58 NW21G28   30.07R
MONROE         CLEAR     52  41  66 NW16G25   29.97R
NATCHEZ MS     CLOUDY    57  54  88 NW10      29.93R
BATON ROUGE    MOCLDY    66  63  90 SW12      29.89R
N.O. INTL ARPT PTCLDY    69  63  81 SW14G21   29.91R
SLIDELL        PTCLDY    67  61  81 SW8       29.89S
$$

MARINE REPORTS

STATION/POSITION TIME  TEMP    WIND        PRES    VSBY  WAVE
                       AIR SEA DIR/SP/G                  HT/PER
                 (UTC) (F)     (DEG/KT/KT) (MB)    (MI)  (FT/S)
BUOY 30 S HIGH I 0200   62 59  240/ 10/ 10 1013.9R         3/ 6
SEA RIM ST PARK  0200   66     330/ 15/ 19 1015.4R
PORT ARTHUR      0200      56  350/ 13/ 16 1014.9R
SABINE PASS N    0200   65 57  300/  5/  9 1014.6R
TEXAS POINT      NOT AVBL
CALCASIEU PASS   0200   63 58  300/ 11/ 15   N/A
LK CHARLES BEACH 0200   63 56              1014.6R
MARSH ISLAND     0100   63     240/  8/ 10   N/A
FRESH WATER LOCK 0200   64 58  210/  7/ 10 1013.3R
AMERADA PASS     0200   62 55  220/  5/  9 1013.4R
$$



USA.gov is the U.S. government's official web portal to all federal, state and local government web resources and services.